Oxon Hill, MD

3:58 PM EST on December 28, 2014 (GMT -0500)
Rosemont Park | Change Station
CLOSE
Current Station
Personal Weather Station
Location: Alexandria, VA
Elevation: 26 ft
Nearby Weather Stations

Elev 26 ft 38.81 °N, 77.06 °W | Updated 8 minutes ago

Rain
Rain
54.4 °F
Feels Like 54.4 °F
N
0.0
Wind Variable Wind from SE
Gusts 0.0 mph

Today
High -- | Low -- °F
--% Chance of Precip.
Yesterday
High -- | Low -- °F
Precip. -- in
7:25 AM 4:53 PM
Waxing Crescent, 51% visible
Pressure 29.98 in
Visibility 10.0 miles
Clouds Few 5000 ft
Mostly Cloudy 10000 ft
Overcast 13000 ft
Dew Point 49 °F
Humidity 82%
Rainfall 0.00 in
Snow Depth Not available.
UV 0 out of 12
Pollen .10 out of 12
Air Quality Not available.
Flu Activity Not available.
METAR KDCA 282052Z 18005KT 10SM -RA FEW050 BKN100 OVC130 12/06 A2998 RMK AO2 SLP152 P0001 60001 T01220061 53008

More Conditions Fewer Conditions

Pressure 29.98 in
Visibility 10.0 miles
Clouds Few 5000 ft
Mostly Cloudy 10000 ft
Overcast 13000 ft
Dew Point 49 °F
Humidity 82%
Rainfall 0.00 in
Snow Depth Not available.
UV 0 out of 12
Pollen .10 out of 12
Air Quality Not available.
Flu Activity Not available.
METAR KDCA 282052Z 18005KT 10SM -RA FEW050 BKN100 OVC130 12/06 A2998 RMK AO2 SLP152 P0001 60001 T01220061 53008

More Conditions Fewer Conditions

10-Day Weather Forecast

Almanac

Astronomy

Dec. 28, 2014 Rise Set
Actual Time
Civil Twilight
Nautical Twilight
Astronomical Twilight
Moon
Length of Visible Light
Length of Day
Tomorrow will be .
, % of the Moon is Illuminated

Today's Extremes

State Highs State Lows

Community

WunderPhotos

Upload Photos

1,781,414 photos uploaded!

WunderBlogs® & News

Nearby

Air Quality

  Air Quality AQ Index Pollutant
Not available.

Snow Depth

Station Depth Elevation

Earthquake Activity

City Distance Mag. Time & Date
Minimum magnitude displayed is 2.5.

Coastal Water Temperatures

Place Temperature

Nearby Weather Stations